Date String (YYYY-MM-DD hh:mm:ss) UTC,Instrument flags,Ambient pressure (hPa),Sample flow (lpm),Bypass flow (lpm),Sample temperature (°C),Ambient temperature (°C),ASC tube jacket temperature (°C),LED temperature (°C),Box temperature (°C),Sample RH (%),Span deviation,Mass concentration (μg/m³),Mass concentration (μg/m³),Mass concentration (μg/m³)
DateTimeUTC,F1_M11,P_M11,Q1_M11,Q2_M11,T1_M11,T2_M11,T3_M11,T4_M11,T5_M11,U1_M11,ZSPAN_M11,X2_M11,X0_M11,X1_M11
2021-08-19 21:00:00,,0824.6,4.99,0.00,33.5,28.3,00.0,41.2,32.6,34.8,0001.5,0009.55,0015.41,0008.22
2021-08-19 21:01:00,,0824.6,5.00,0.00,33.5,28.5,00.0,41.3,32.6,35.1,0001.4,0009.64,0015.38,0008.27
2021-08-19 21:02:00,,0824.7,4.99,0.00,33.6,28.6,00.0,41.3,32.7,34.4,0001.4,0009.73,0015.80,0008.30
2021-08-19 21:03:00,,0824.8,5.00,0.00,33.6,28.8,00.0,41.4,32.8,34.1,0001.8,0009.77,0016.10,0008.33
2021-08-19 21:04:00,,0824.9,5.00,0.00,33.6,28.9,00.0,41.4,32.8,34.0,0002.0,0009.83,0016.05,0008.40
2021-08-19 21:05:00,,0824.9,5.00,0.00,33.5,29.0,00.0,41.5,32.9,34.5,0002.1,0009.87,0016.31,0008.43
2021-08-19 21:06:00,,0825.0,5.00,0.00,33.5,28.2,00.0,41.5,32.6,33.8,0001.8,0009.92,0017.01,0008.49
2021-08-19 21:07:00,,0825.0,5.00,0.00,33.3,26.7,00.0,41.5,32.2,34.3,0001.6,0010.01,0017.17,0008.55
2021-08-19 21:08:00,,0825.0,5.01,0.00,33.2,26.1,00.0,41.5,32.0,35.2,0001.6,0010.04,0017.17,0008.58
2021-08-19 21:09:00,,0824.9,4.99,0.00,33.1,26.3,00.0,41.4,32.2,36.3,0001.8,0010.04,0017.18,0008.63
2021-08-19 21:10:00,,0825.0,5.01,0.00,33.2,26.8,00.0,41.3,32.4,35.2,0001.7,0010.01,0017.37,0008.64
2021-08-19 21:11:00,,0825.0,4.99,0.00,33.4,27.2,00.0,41.3,32.5,33.4,0001.6,0009.99,0017.73,0008.63
2021-08-19 21:12:00,,0825.1,5.01,0.00,33.4,27.6,00.0,41.3,32.6,33.5,0001.4,0009.97,0018.18,0008.62
2021-08-19 21:13:00,,0825.1,4.99,0.00,33.4,27.9,00.0,41.3,32.6,34.7,0001.3,0009.99,0017.84,0008.64
2021-08-19 21:14:00,,0825.1,4.99,0.00,33.5,28.2,00.0,41.4,32.6,34.3,0001.3,0009.94,0017.22,0008.64
2021-08-19 21:15:00,,0825.1,5.00,0.00,33.5,28.5,00.0,41.4,32.7,33.5,0001.1,0009.92,0017.09,0008.62
2021-08-19 21:16:00,,0825.1,5.00,0.00,33.5,28.7,00.0,41.4,32.8,32.1,0001.0,0009.90,0017.08,0008.58
2021-08-19 21:17:00,,0825.0,5.00,0.00,33.4,28.8,00.0,41.5,32.8,31.3,0001.2,0009.85,0016.69,0008.53
2021-08-19 21:18:00,,0825.0,5.00,0.00,33.4,29.0,00.0,41.5,32.8,31.9,0001.3,0009.75,0016.30,0008.47
2021-08-19 21:19:00,,0824.9,5.01,0.00,33.3,29.1,00.0,41.5,32.8,32.5,0001.3,0009.73,0016.35,0008.43
2021-08-19 21:20:00,,0824.9,5.00,0.00,33.2,28.1,00.0,41.5,32.6,32.5,0001.1,0009.62,0016.19,0008.37
2021-08-19 21:21:00,,0824.9,4.99,0.00,33.0,26.5,00.0,41.5,32.1,33.3,0001.1,0009.57,0016.47,0008.30
2021-08-19 21:22:00,,0824.8,5.01,0.00,32.8,26.1,00.0,41.4,32.0,33.2,0001.0,0009.56,0016.71,0008.29
2021-08-19 21:23:00,,0824.6,4.99,0.00,32.7,26.4,00.0,41.4,32.1,33.4,0000.9,0009.47,0016.32,0008.25
2021-08-19 21:24:00,,0824.6,5.00,0.00,32.5,26.9,00.0,41.3,32.1,34.2,0001.2,0009.42,0016.03,0008.23
2021-08-19 21:25:00,,0824.6,5.01,0.00,32.4,27.3,00.0,41.2,32.2,35.2,0001.4,0009.38,0016.23,0008.22
2021-08-19 21:26:00,,0824.6,5.00,0.00,32.5,27.7,00.0,41.2,32.4,35.6,0001.4,0009.39,0016.44,0008.24
2021-08-19 21:27:00,,0824.6,5.00,0.00,32.7,28.0,00.0,41.1,32.6,34.8,0001.3,0009.40,0016.36,0008.26
2021-08-19 21:28:00,,0824.4,4.99,0.00,32.9,28.3,00.0,41.1,32.7,33.3,0001.4,0009.33,0015.63,0008.27
2021-08-19 21:29:00,,0824.4,5.00,0.00,33.0,28.5,00.0,41.1,32.7,33.6,0001.5,0009.37,0015.63,0008.33
2021-08-19 21:30:00,,0824.4,5.00,0.00,33.0,28.7,00.0,41.1,32.7,33.8,0001.3,0009.35,0015.57,0008.36
2021-08-19 21:31:00,,0824.4,5.00,0.00,33.0,28.8,00.0,41.1,32.7,33.5,0001.4,0009.35,0015.52,0008.40
2021-08-19 21:32:00,,0824.4,4.99,0.00,32.9,29.0,00.0,41.2,32.7,33.3,0001.4,0009.40,0015.64,0008.46
2021-08-19 21:33:00,,0824.5,5.01,0.00,32.9,29.1,00.0,41.2,32.7,33.4,0001.4,0009.50,0015.62,0008.51
2021-08-19 21:34:00,,0824.5,4.99,0.00,32.9,29.1,00.0,41.2,32.7,33.4,0001.4,0009.62,0015.73,0008.58
2021-08-19 21:35:00,,0824.5,5.01,0.00,32.8,28.0,00.0,41.2,32.4,33.9,0001.6,0009.64,0015.58,0008.63
2021-08-19 21:36:00,,0824.4,4.98,0.00,32.5,26.5,00.0,41.2,32.0,33.3,0001.5,0009.70,0015.49,0008.64
2021-08-19 21:37:00,,0824.4,5.02,0.00,32.4,26.1,00.0,41.1,31.9,33.6,0001.4,0009.72,0015.32,0008.62
2021-08-19 21:38:00,,0824.5,4.99,0.00,32.2,26.4,00.0,41.1,31.9,35.1,0001.2,0009.70,0015.29,0008.61
2021-08-19 21:39:00,,0824.5,5.00,0.00,32.1,26.8,00.0,41.0,32.1,35.1,0000.7,0009.74,0015.75,0008.62
2021-08-19 21:40:00,,0824.5,5.01,0.00,32.2,27.3,00.0,40.9,32.2,35.1,0000.4,0009.74,0015.86,0008.60
2021-08-19 21:41:00,,0824.6,4.99,0.00,32.4,27.7,00.0,40.9,32.4,33.7,0000.4,0009.79,0016.08,0008.56
2021-08-19 21:42:00,,0824.8,5.00,0.00,32.5,28.0,00.0,40.9,32.4,34.0,0000.5,0009.85,0016.31,0008.57
2021-08-19 21:43:00,,0824.6,4.99,0.00,32.5,28.3,00.0,40.9,32.4,34.0,0000.5,0009.83,0015.94,0008.55
2021-08-19 21:44:00,,0824.6,4.99,0.00,32.5,28.5,00.0,40.9,32.5,34.1,0000.6,0009.76,0015.43,0008.51
2021-08-19 21:45:00,,0824.6,5.00,0.00,32.5,28.7,00.0,40.9,32.5,35.5,0000.8,0009.72,0015.26,0008.51
2021-08-19 21:46:00,,0824.8,5.00,0.00,32.6,28.8,00.0,40.9,32.6,35.3,0000.9,0009.73,0015.74,0008.50
2021-08-19 21:47:00,,0824.6,5.00,0.00,32.8,29.0,00.0,40.9,32.8,32.8,0000.8,0009.67,0015.81,0008.46
2021-08-19 21:48:00,,0824.5,5.00,0.00,32.9,29.0,00.0,41.0,32.8,33.4,0001.1,0009.67,0015.89,0008.46
2021-08-19 21:49:00,,0824.7,5.01,0.00,32.9,29.1,00.0,41.0,32.8,32.4,0001.4,0009.69,0015.98,0008.44
2021-08-19 21:50:00,,0824.4,5.00,0.00,32.9,27.9,00.0,41.0,32.4,33.7,0001.8,0009.72,0015.70,0008.46
2021-08-19 21:51:00,,0824.4,4.99,0.00,32.7,26.5,00.0,41.0,32.0,34.0,0002.1,0009.73,0015.71,0008.47
2021-08-19 21:52:00,,0824.2,5.02,0.00,32.5,26.1,00.0,41.0,31.8,33.5,0002.3,0009.73,0016.36,0008.49
2021-08-19 21:53:00,,0824.3,4.99,0.00,32.4,26.5,00.0,41.0,32.0,33.3,0002.1,0009.71,0016.56,0008.50
2021-08-19 21:54:00,,0824.2,5.00,0.00,32.3,26.9,00.0,40.9,32.1,34.9,0002.1,0009.73,0016.79,0008.50
2021-08-19 21:55:00,,0824.2,5.00,0.00,32.2,27.3,00.0,40.9,32.2,36.0,0002.2,0009.76,0016.76,0008.50
2021-08-19 21:56:00,,0824.3,5.00,0.00,32.4,27.7,00.0,40.8,32.4,33.8,0002.0,0009.70,0017.19,0008.42
2021-08-19 21:57:00,,0824.3,5.00,0.00,32.5,27.9,00.0,40.8,32.4,34.4,0001.7,0009.64,0016.74,0008.36
2021-08-19 21:58:00,,0824.2,5.00,0.00,32.5,28.2,00.0,40.8,32.4,34.8,0001.7,0009.60,0016.68,0008.32
2021-08-19 21:59:00,,0824.2,4.99,0.00,32.5,28.4,00.0,40.8,32.5,34.5,0001.5,0009.50,0016.80,0008.26
